OK2SZ-6 Weather Reports


time (UTC)temp
C
wind
direction
speed
KPH
gust
KPH
rain 1hr
cm
rain 24hr
cm
rain mn
cm
humidity
%
barometer
mb
20260506165503 22 219 3.2 17.7 0.00 0.00 0.00 48 1002.7
20260506165003 22 237 4.8 17.7 0.00 0.00 0.00 48 1002.8
20260506164524 22 228 4.8 17.7 0.00 0.00 0.00 48 1002.7
20260506164003 22 215 4.8 14.5 0.00 0.00 0.00 48 1002.9
20260506163503 22 215 4.8 14.5 0.00 0.00 0.00 47 1002.6
20260506163003 22 204 4.8 14.5 0.00 0.00 0.00 47 1002.9
20260506162524 22 199 4.8 14.5 0.00 0.00 0.00 47 1002.6
20260506162004 22 204 4.8 16.1 0.00 0.00 0.00 47 1003.1
20260506161504 22 221 6.4 20.9 0.00 0.00 0.00 47 1003.1
20260506161004 22 210 6.4 20.9 0.00 0.00 0.00 47 1003.0
20260506160504 22 193 6.4 22.5 0.00 0.00 0.00 47 1003.4
20260506160025 22 224 6.4 22.5 0.00 0.00 0.00 46 1003.2
20260506155504 22 229 6.4 22.5 0.00 0.00 0.00 46 1003.5
20260506155003 23 224 4.8 14.5 0.00 0.00 0.00 46 1003.3
20260506154504 23 205 4.8 14.5 0.00 0.00 0.00 45 1003.4
20260506154003 23 205 6.4 14.5 0.00 0.00 0.00 47 1003.6
20260506153504 23 206 4.8 14.5 0.00 0.00 0.00 45 1003.6
20260506153003 23 196 4.8 17.7 0.00 0.00 0.00 46 1003.7
20260506152524 23 215 6.4 20.9 0.00 0.00 0.00 46 1003.8
20260506152003 23 235 6.4 20.9 0.00 0.00 0.00 46 1003.6
20260506151504 23 221 4.8 16.1 0.00 0.00 0.00 46 1003.8
20260506151024 22 199 4.8 16.1 0.00 0.00 0.00 49 1003.9
20260506150504 22 202 4.8 16.1 0.00 0.00 0.00 49 1004.3
20260506150004 22 187 4.8 16.1 0.00 0.00 0.00 49 1004.0
20260506145503 22 200 6.4 16.1 0.00 0.00 0.00 49 1004.5
20260506145003 22 231 6.4 17.7 0.00 0.00 0.00 50 1004.3
20260506144503 22 233 4.8 17.7 0.00 0.00 0.00 49 1004.0
20260506144024 22 211 4.8 17.7 0.00 0.00 0.00 49 1004.5
20260506143504 22 202 4.8 16.1 0.00 0.00 0.00 50 1004.3
20260506143003 22 162 4.8 16.1 0.00 0.00 0.00 50 1004.4
20260506142503 22 125 4.8 16.1 0.00 0.00 0.00 52 1004.3
20260506142003 21 135 4.8 16.1 0.00 0.00 0.00 52 1004.3
20260506141503 21 184 4.8 16.1 0.00 0.00 0.00 51 1004.2
20260506141003 21 192 4.8 16.1 0.00 0.00 0.00 51 1004.4
20260506140503 21 213 4.8 17.7 0.00 0.00 0.00 51 1004.4
20260506140004 21 229 8.0 17.7 0.00 0.00 0.00 50 1004.8
20260506135504 22 202 6.4 17.7 0.00 0.00 0.00 50 1004.5
20260506135004 22 121 3.2 17.7 0.00 0.00 0.00 51 1004.6
20260506134504 22 113 3.2 6.4 0.00 0.00 0.00 49 1004.6
20260506134024 23 166 3.2 6.4 0.00 0.00 0.00 49 1004.6
20260506133503 22 189 3.2 14.5 0.00 0.00 0.00 48 1004.8
20260506133004 21 198 4.8 14.5 0.00 0.00 0.00 49 1004.9
20260506132503 21 204 4.8 14.5 0.00 0.00 0.00 49 1004.9
20260506132004 21 204 3.2 16.1 0.00 0.00 0.00 49 1005.0
20260506131504 21 217 4.8 16.1 0.00 0.00 0.00 49 1005.3
20260506131003 22 223 4.8 16.1 0.00 0.00 0.00 48 1005.1
20260506130503 22 224 3.2 16.1 0.00 0.00 0.00 47 1005.6
20260506130004 22 227 4.8 16.1 0.00 0.00 0.00 47 1005.4
20260506125504 22 230 3.2 9.7 0.00 0.00 0.00 47 1005.4
20260506125004 21 220 3.2 9.7 0.00 0.00 0.00 48 1005.5
20260506124504 22 174 3.2 20.9 0.00 0.00 0.00 48 1005.5
20260506124004 22 198 4.8 20.9 0.00 0.00 0.00 48 1005.6
20260506123504 22 228 4.8 20.9 0.00 0.00 0.00 48 1005.6
20260506123003 22 131 3.2 20.9 0.00 0.00 0.00 48 1005.7
20260506122503 22 155 4.8 20.9 0.00 0.00 0.00 48 1005.6
20260506122004 23 219 4.8 11.3 0.00 0.00 0.00 46 1005.6
20260506121503 23 215 4.8 14.5 0.00 0.00 0.00 46 1005.6
20260506121003 22 215 4.8 14.5 0.00 0.00 0.00 48 1005.7
20260506120503 22 210 4.8 14.5 0.00 0.00 0.00 46 1005.8
20260506120004 22 213 3.2 11.3 0.00 0.00 0.00 45 1005.7
20260506115504 22 212 3.2 12.9 0.00 0.00 0.00 45 1005.8
20260506115025 22 223 3.2 12.9 0.00 0.00 0.00 47 1006.0
20260506114503 23 208 3.2 11.3 0.00 0.00 0.00 46 1005.8
20260506114003 23 220 4.8 11.3 0.00 0.00 0.00 47 1005.7
20260506113504 22 218 4.8 11.3 0.00 0.00 0.00 46 1005.8
20260506113003 22 212 4.8 11.3 0.00 0.00 0.00 46 1005.8
20260506112504 22 208 4.8 11.3 0.00 0.00 0.00 47 1006.0
20260506112003 22 166 3.2 11.3 0.00 0.00 0.00 47 1005.9
20260506111503 22 158 1.6 9.7 0.00 0.00 0.00 48 1005.9
20260506111004 22 188 1.6 6.4 0.00 0.00 0.00 48 1005.9
20260506110524 22 207 3.2 11.3 0.00 0.00 0.00 48 1006.0
20260506110004 22 201 3.2 11.3 0.00 0.00 0.00 48 1006.1
20260506105503 22 155 3.2 14.5 0.00 0.00 0.00 47 1006.2
20260506105003 22 129 3.2 14.5 0.00 0.00 0.00 47 1006.1
20260506104504 22 136 3.2 9.7 0.00 0.00 0.00 47 1006.0
20260506104004 22 209 4.8 11.3 0.00 0.00 0.00 48 1006.0
20260506103504 22 231 4.8 17.7 0.00 0.00 0.00 50 1006.4
20260506103004 22 230 6.4 17.7 0.00 0.00 0.00 48 1006.3
20260506102524 22 216 4.8 17.7 0.00 0.00 0.00 48 1006.1
20260506102024 22 96 3.2 11.3 0.00 0.00 0.00 48 1006.3
20260506101503 22 97 4.8 11.3 0.00 0.00 0.00 50 1006.4
20260506101004 21 149 4.8 11.3 0.00 0.00 0.00 51 1006.5
20260506100504 22 159 3.2 11.3 0.00 0.00 0.00 49 1006.3
20260506100004 23 161 4.8 11.3 0.00 0.00 0.00 48 1006.4
20260506095503 22 208 3.2 11.3 0.00 0.00 0.00 51 1006.7
20260506095003 21 215 3.2 14.5 0.00 0.00 0.00 52 1006.5
20260506094524 21 186 4.8 14.5 0.00 0.00 0.00 53 1006.6
20260506094004 21 161 4.8 16.1 0.00 0.00 0.00 53 1006.5
20260506093503 21 207 3.2 16.1 0.00 0.00 0.00 56 1006.6
20260506093004 21 154 1.6 9.7 0.00 0.00 0.00 55 1006.5
20260506092504 20 143 1.6 6.4 0.00 0.00 0.00 56 1006.5
20260506092025 21 191 3.2 11.3 0.00 0.00 0.00 53 1006.6
20260506091503 21 181 4.8 11.3 0.00 0.00 0.00 52 1006.5
20260506091004 21 196 4.8 11.3 0.00 0.00 0.00 53 1006.6
20260506090504 21 208 4.8 11.3 0.00 0.00 0.00 55 1006.7
20260506090004 21 199 3.2 11.3 0.00 0.00 0.00 54 1006.5
20260506085504 21 167 3.2 9.7 0.00 0.00 0.00 52 1006.5
20260506085004 21 196 3.2 9.7 0.00 0.00 0.00 54 1006.5
20260506084504 20 201 3.2 12.9 0.00 0.00 0.00 56 1006.7
20260506084003 20 198 3.2 14.5 0.00 0.00 0.00 56 1006.6
20260506083503 21 201 4.8 14.5 0.00 0.00 0.00 54 1006.8
20260506083003 20 174 4.8 14.5 0.00 0.00 0.00 54 1006.7
20260506082503 21 195 3.2 11.3 0.00 0.00 0.00 54 1006.7
20260506082003 20 231 3.2 11.3 0.00 0.00 0.00 58 1006.8
20260506081525 19 222 4.8 12.9 0.00 0.00 0.00 57 1006.9
20260506081003 20 228 4.8 14.5 0.00 0.00 0.00 57 1006.9
20260506080503 19 236 6.4 16.1 0.00 0.00 0.00 58 1006.6
20260506073504 20 196 1.6 9.7 0.00 0.00 0.00 59 1006.5
20260506073004 18 225 3.2 16.1 0.00 0.00 0.00 61 1006.9
20260506072504 18 226 3.2 16.1 0.00 0.00 0.00 63 1006.9
20260506072003 17 217 3.2 16.1 0.00 0.00 0.00 64 1006.7
20260506071504 18 211 3.2 14.5 0.00 0.00 0.00 63 1006.7
20260506071025 18 201 3.2 14.5 0.00 0.00 0.00 62 1006.6
20260506070503 18 215 3.2 11.3 0.00 0.00 0.00 62 1006.7
20260506062504 17 81 1.6 4.8 0.00 0.00 0.00 72 1006.8
20260506062025 17 83 1.6 4.8 0.00 0.00 0.00 72 1006.5
20260506061503 17 82 1.6 4.8 0.00 0.00 0.00 73 1006.8
20260506061003 16 78 1.6 3.2 0.00 0.00 0.00 74 1006.7
20260506060504 16 72 1.6 3.2 0.00 0.00 0.00 75 1006.7
20260506051003 12 67 1.6 3.2 0.00 0.00 0.00 81 1006.4
20260506050504 12 62 1.6 3.2 0.00 0.00 0.00 81 1006.5
20260506045003 11 51 1.6 3.2 0.00 0.00 0.00 83 1006.3
20260506044525 11 50 0.0 3.2 0.00 0.00 0.00 83 1006.2
20260506044004 11 50 0.0 1.6 0.00 0.00 0.00 86 1006.4
20260506043503 10 50 0.0 1.6 0.00 0.00 0.00 87 1006.4
20260506043003 10 49 0.0 3.2 0.00 0.00 0.00 87 1006.3
20260506042504 10 48 0.0 3.2 0.00 0.00 0.00 89 1006.1
20260506042003 9 0 0.0 0.0 0.00 0.00 0.00 93 1006.1
20260506041503 8 37 0.0 1.6 0.00 0.00 0.00 94 1006.2
20260506041004 8 37 0.0 1.6 0.00 0.00 0.00 94 1005.9
20260506040503 8 37 0.0 1.6 0.00 0.00 0.00 94 1005.8
20260506040025 8 37 0.0 3.2 0.00 0.00 0.00 95 1005.9
20260506035504 8 37 0.0 3.2 0.00 0.00 0.00 95 1005.6
20260506035024 8 0 0.0 0.0 0.00 0.00 0.00 95 1005.9
20260506034504 8 0 0.0 0.0 0.00 0.00 0.00 94 1005.6
20260506034003 8 0 0.0 0.0 0.00 0.00 0.00 94 1005.8
20260506033504 8 0 0.0 0.0 0.00 0.00 0.00 94 1005.8
20260506033004 8 0 0.0 0.0 0.00 0.00 0.00 93 1005.9
20260506032503 8 0 0.0 0.0 0.00 0.00 0.00 93 1005.8
20260506032003 9 0 0.0 0.0 0.00 0.00 0.00 93 1005.7
20260506031503 9 37 0.0 1.6 0.00 0.00 0.00 93 1005.6
20260506031003 9 37 0.0 1.6 0.00 0.00 0.00 92 1005.6
20260506030525 10 37 0.0 1.6 0.00 0.00 0.00 92 1005.6
20260506030004 10 0 0.0 0.0 0.00 0.00 0.00 91 1005.7
20260506025504 10 0 0.0 0.0 0.00 0.00 0.00 91 1005.6
20260506025004 10 0 0.0 0.0 0.00 0.00 0.00 91 1005.8
20260506024503 10 32 0.0 1.6 0.00 0.00 0.00 90 1005.5
20260506024004 10 32 0.0 1.6 0.00 0.00 0.00 90 1005.5
20260506023504 10 19 0.0 3.2 0.00 0.00 0.00 90 1005.3
20260506023004 10 14 0.0 3.2 0.00 0.00 0.00 90 1005.4
20260506022504 10 252 0.0 1.6 0.00 0.00 0.00 91 1005.4
20260506022004 10 0 0.0 0.0 0.00 0.00 0.00 91 1005.8
20260506021525 10 0 0.0 0.0 0.00 0.00 0.00 91 1005.7
20260506021025 10 0 0.0 0.0 0.00 0.00 0.00 90 1005.7
20260506020504 10 0 0.0 0.0 0.00 0.00 0.00 89 1005.7
20260506020004 11 0 0.0 0.0 0.00 0.00 0.00 90 1005.5
20260506015503 11 0 0.0 0.0 0.00 0.00 0.00 90 1005.3
20260506015004 11 251 0.0 1.6 0.00 0.00 0.00 89 1005.5
20260506014505 11 251 0.0 1.6 0.00 0.00 0.00 88 1005.1
20260506014004 12 251 0.0 1.6 0.00 0.00 0.00 86 1005.5
20260506013504 12 0 0.0 0.0 0.00 0.00 0.00 85 1005.3
20260506013003 12 0 0.0 0.0 0.00 0.00 0.00 84 1005.1
20260506012504 12 0 0.0 0.0 0.00 0.00 0.00 82 1004.9
20260506012003 12 0 0.0 0.0 0.00 0.00 0.00 81 1005.3
20260506011504 12 0 0.0 0.0 0.00 0.00 0.00 80 1004.9
20260506011004 12 0 0.0 0.0 0.00 0.00 0.00 79 1005.0
20260506010504 13 251 0.0 1.6 0.00 0.00 0.00 78 1005.0
20260506010004 13 251 0.0 1.6 0.00 0.00 0.00 78 1005.1
20260506005504 13 251 0.0 1.6 0.00 0.00 0.00 77 1004.9
20260506005025 13 251 0.0 1.6 0.00 0.00 0.00 77 1005.0
20260506004504 13 251 0.0 1.6 0.00 0.00 0.00 77 1004.6
20260506004025 13 251 0.0 1.6 0.00 0.00 0.00 76 1004.9
20260506003524 13 251 0.0 1.6 0.00 0.00 0.00 76 1005.1
20260506003004 13 251 0.0 1.6 0.00 0.00 0.00 75 1004.9
20260506002504 13 251 0.0 1.6 0.00 0.00 0.00 74 1004.9
20260506002004 13 251 0.0 1.6 0.00 0.00 0.00 73 1005.0
20260506001525 13 0 0.0 0.0 0.00 0.00 0.00 73 1004.8
20260506001004 14 251 0.0 1.6 0.00 0.00 0.00 72 1004.6
20260506000504 14 251 0.0 1.6 0.00 0.00 0.00 70 1004.5
20260506000004 14 250 0.0 1.6 0.00 0.00 0.00 69 1004.8
20260505235503 14 248 0.0 3.2 0.00 0.00 0.00 69 1004.6
20260505235004 15 246 1.6 3.2 0.00 0.00 0.00 69 1004.9
20260505234503 15 245 1.6 3.2 0.00 0.00 0.00 68 1004.9
20260505234004 15 236 1.6 4.8 0.00 0.00 0.00 68 1004.9
20260505233525 15 234 1.6 4.8 0.00 0.00 0.00 68 1004.5
20260505233025 15 236 1.6 4.8 0.00 0.00 0.00 67 1004.4
20260505232504 15 232 1.6 4.8 0.00 0.00 0.00 67 1004.4
20260505232003 15 225 1.6 4.8 0.00 0.00 0.00 66 1004.8
20260505231504 15 224 1.6 4.8 0.00 0.00 0.00 66 1004.6
20260505231004 15 225 1.6 4.8 0.00 0.00 0.00 66 1004.5
20260505230504 15 225 1.6 9.7 0.00 0.00 0.00 66 1004.4
20260505230004 15 208 1.6 9.7 0.00 0.00 0.00 66 1004.8
20260505225504 15 198 1.6 9.7 0.00 0.00 0.00 65 1004.5
20260505225004 15 216 3.2 6.4 0.00 0.00 0.00 65 1004.3
20260505224504 15 232 3.2 6.4 0.00 0.00 0.00 65 1004.4
20260505224004 15 225 1.6 6.4 0.00 0.00 0.00 65 1004.5
20260505223525 15 218 1.6 4.8 0.00 0.00 0.00 65 1004.5
20260505223003 15 221 1.6 6.4 0.00 0.00 0.00 65 1004.4
20260505222504 15 226 3.2 6.4 0.00 0.00 0.00 64 1004.4
20260505222025 15 233 3.2 6.4 0.00 0.00 0.00 64 1004.6
20260505221503 15 224 1.6 6.4 0.00 0.00 0.00 64 1004.3
20260505221003 15 228 1.6 6.4 0.00 0.00 0.00 64 1004.5
20260505220504 15 236 1.6 9.7 0.00 0.00 0.00 64 1004.3
20260505220004 15 240 1.6 9.7 0.00 0.00 0.00 64 1004.3
20260505215504 15 244 1.6 9.7 0.00 0.00 0.00 63 1004.1
20260505215004 15 237 1.6 4.8 0.00 0.00 0.00 63 1004.1
20260505214503 15 225 1.6 4.8 0.00 0.00 0.00 63 1004.1
20260505214003 15 196 1.6 9.7 0.00 0.00 0.00 62 1004.2
20260505213525 15 213 1.6 9.7 0.00 0.00 0.00 62 1004.4
20260505213004 15 239 1.6 9.7 0.00 0.00 0.00 61 1004.3
20260505212504 15 213 1.6 9.7 0.00 0.00 0.00 61 1004.2
20260505212004 16 215 1.6 9.7 0.00 0.00 0.00 60 1004.4
20260505211525 16 210 3.2 9.7 0.00 0.00 0.00 60 1004.6
20260505211003 16 229 1.6 9.7 0.00 0.00 0.00 59 1004.4
20260505210504 16 226 1.6 9.7 0.00 0.00 0.00 59 1004.2
20260505210025 16 207 1.6 6.4 0.00 0.00 0.00 59 1004.3
20260505205503 16 224 1.6 4.8 0.00 0.00 0.00 59 1004.4
20260505205003 16 209 3.2 12.9 0.00 0.00 0.00 57 1004.3
20260505204504 16 210 3.2 12.9 0.00 0.00 0.00 57 1004.5
20260505204004 16 233 3.2 11.3 0.00 0.00 0.00 57 1004.4
20260505203504 16 219 3.2 11.3 0.00 0.00 0.00 56 1004.3
20260505203004 16 175 3.2 9.7 0.00 0.00 0.00 56 1004.4
20260505202525 16 133 1.6 9.7 0.00 0.00 0.00 56 1004.4
20260505202025 16 186 1.6 9.7 0.00 0.00 0.00 56 1004.3
20260505201504 17 223 3.2 9.7 0.00 0.00 0.00 55 1004.5
20260505201004 17 227 3.2 9.7 0.00 0.00 0.00 55 1004.2
20260505200504 17 213 3.2 6.4 0.00 0.00 0.00 55 1004.6
20260505200004 17 184 1.6 6.4 0.00 0.00 0.00 55 1004.4
20260505195504 17 166 3.2 9.7 0.00 0.00 0.00 55 1004.5
20260505195004 17 164 3.2 9.7 0.00 0.00 0.00 54 1004.6
20260505194504 17 159 1.6 6.4 0.00 0.00 0.00 55 1004.5
20260505194004 17 155 1.6 4.8 0.00 0.00 0.00 54 1004.4
20260505193504 17 186 1.6 11.3 0.00 0.00 0.00 54 1004.5
20260505193004 17 203 3.2 12.9 0.00 0.00 0.00 54 1004.1
20260505192525 18 191 3.2 12.9 0.00 0.00 0.00 53 1004.3
20260505192004 18 214 1.6 6.4 0.00 0.00 0.00 53 1004.4
20260505191504 18 226 1.6 6.4 0.00 0.00 0.00 53 1004.3
20260505191004 18 200 1.6 11.3 0.00 0.00 0.00 53 1004.4
20260505190504 18 201 3.2 11.3 0.00 0.00 0.00 53 1004.4
20260505190004 18 215 4.8 12.9 0.00 0.00 0.00 52 1004.5
20260505185505 18 189 3.2 12.9 0.00 0.00 0.00 52 1004.5
20260505185025 18 181 3.2 12.9 0.00 0.00 0.00 51 1004.3
20260505184504 18 202 3.2 14.5 0.00 0.00 0.00 51 1004.5
20260505184004 19 215 4.8 14.5 0.00 0.00 0.00 50 1004.5
20260505183504 19 201 4.8 14.5 0.00 0.00 0.00 50 1004.4
20260505183004 19 202 4.8 20.9 0.00 0.00 0.00 50 1004.3
20260505182504 19 221 6.4 20.9 0.00 0.00 0.00 49 1004.3
20260505182004 20 237 6.4 20.9 0.00 0.00 0.00 48 1004.3
20260505181504 20 235 4.8 16.1 0.00 0.00 0.00 48 1004.2
20260505181025 20 218 3.2 12.9 0.00 0.00 0.00 48 1004.2
20260505180504 20 199 4.8 16.1 0.00 0.00 0.00 47 1004.2
20260505180004 20 213 6.4 20.9 0.00 0.00 0.00 46 1004.0
20260505175504 20 207 8.0 20.9 0.00 0.00 0.00 46 1004.2
20260505175004 21 193 8.0 20.9 0.00 0.00 0.00 44 1003.9
20260505174504 21 198 6.4 16.1 0.00 0.00 0.00 44 1004.2
20260505174004 21 191 6.4 16.1 0.00 0.00 0.00 44 1004.1
20260505173504 21 209 6.4 16.1 0.00 0.00 0.00 43 1004.1
20260505173004 22 210 4.8 12.9 0.00 0.00 0.00 44 1003.9
20260505172504 22 209 6.4 24.1 0.00 0.00 0.00 43 1003.9
20260505172004 22 217 6.4 24.1 0.00 0.00 0.00 43 1003.8
20260505171504 22 220 6.4 20.9 0.00 0.00 0.00 42 1003.9
20260505171004 22 207 4.8 20.9 0.00 0.00 0.00 42 1003.8
20260505170525 23 205 4.8 14.5 0.00 0.00 0.00 41 1004.0
20260505170004 23 221 4.8 20.9 0.00 0.00 0.00 41 1003.8